TimeEDT,TemperatureF,Dew PointF,Humidity,Sea Level PressureIn,VisibilityMPH,Wind Direction,Wind SpeedMPH,Gust SpeedMPH,PrecipitationIn,Events,Conditions,WindDirDegrees,DateUTC
12:15 AM,24.8,17.6,74,30.10,10.0,SSW,4.6,-,N/A,,Scattered Clouds,210,2013-10-26 04:15:00
12:35 AM,26.6,21.2,80,30.10,10.0,West,6.9,-,N/A,,Clear,260,2013-10-26 04:35:00
12:55 AM,30.2,24.8,80,30.11,10.0,WSW,4.6,-,N/A,,Scattered Clouds,240,2013-10-26 04:55:00
1:15 AM,28.4,21.2,74,30.11,10.0,West,5.8,-,N/A,,Scattered Clouds,260,2013-10-26 05:15:00
1:35 AM,30.2,21.2,69,30.11,10.0,WSW,4.6,-,N/A,,Clear,250,2013-10-26 05:35:00
1:55 AM,26.6,17.6,69,30.10,10.0,North,3.5,-,N/A,,Clear,360,2013-10-26 05:55:00
2:15 AM,24.8,21.2,86,30.11,10.0,Calm,Calm,-,N/A,,Partly Cloudy,0,2013-10-26 06:15:00
2:35 AM,24.8,21.2,86,30.10,10.0,Calm,Calm,-,N/A,,Clear,0,2013-10-26 06:35:00
2:55 AM,23.0,17.6,80,30.10,10.0,Calm,Calm,-,N/A,,Clear,0,2013-10-26 06:55:00
3:15 AM,21.2,14.0,74,30.10,10.0,Calm,Calm,-,N/A,,Clear,0,2013-10-26 07:15:00
3:35 AM,21.2,17.6,86,30.10,10.0,West,5.8,-,N/A,,Clear,260,2013-10-26 07:35:00
3:55 AM,21.2,21.2,100,30.10,10.0,WSW,4.6,-,N/A,,Clear,250,2013-10-26 07:55:00
4:15 AM,21.2,17.6,86,30.10,10.0,WSW,5.8,-,N/A,,Clear,250,2013-10-26 08:15:00
4:35 AM,21.2,14.0,74,30.10,10.0,WSW,6.9,-,N/A,,Clear,250,2013-10-26 08:35:00
4:55 AM,26.6,24.8,93,30.10,10.0,WSW,6.9,-,N/A,,Clear,240,2013-10-26 08:55:00
5:15 AM,26.6,19.4,74,30.10,10.0,SW,4.6,-,N/A,,Clear,230,2013-10-26 09:15:00
5:35 AM,24.8,14.0,64,30.10,10.0,Calm,Calm,-,N/A,,Clear,0,2013-10-26 09:35:00
5:55 AM,23.0,17.6,80,30.10,10.0,Calm,Calm,-,N/A,,Clear,0,2013-10-26 09:55:00
6:15 AM,23.0,19.4,86,30.10,10.0,Calm,Calm,-,N/A,,Mostly Cloudy,0,2013-10-26 10:15:00
6:35 AM,24.8,15.8,69,30.09,10.0,Calm,Calm,-,N/A,,Overcast,0,2013-10-26 10:35:00
6:55 AM,24.8,19.4,80,30.09,10.0,Calm,Calm,-,N/A,,Mostly Cloudy,0,2013-10-26 10:55:00
7:15 AM,23.0,21.2,93,30.09,10.0,Calm,Calm,-,N/A,,Partly Cloudy,0,2013-10-26 11:15:00
7:35 AM,23.0,17.6,80,30.09,10.0,Calm,Calm,-,N/A,,Clear,0,2013-10-26 11:35:00
7:55 AM,24.8,17.6,74,30.09,10.0,South,3.5,-,N/A,,Clear,190,2013-10-26 11:55:00
8:15 AM,32.0,28.4,87,30.10,10.0,SSW,5.8,-,N/A,,Clear,210,2013-10-26 12:15:00
8:35 AM,35.6,26.6,70,30.09,10.0,SSW,6.9,-,N/A,,Clear,200,2013-10-26 12:35:00
8:55 AM,37.4,26.6,65,30.10,10.0,SSW,5.8,-,N/A,,Clear,200,2013-10-26 12:55:00
9:15 AM,39.2,30.2,70,30.10,10.0,SW,5.8,-,N/A,,Clear,220,2013-10-26 13:15:00
9:35 AM,42.8,30.2,61,30.09,10.0,WSW,5.8,-,N/A,,Clear,240,2013-10-26 13:35:00
9:55 AM,42.8,30.2,61,30.08,10.0,SW,5.8,-,N/A,,Clear,220,2013-10-26 13:55:00
10:15 AM,42.8,30.2,61,30.07,10.0,WSW,6.9,-,N/A,,Clear,240,2013-10-26 14:15:00
10:35 AM,44.6,30.2,57,30.06,10.0,SW,8.1,-,N/A,,Clear,230,2013-10-26 14:35:00
10:55 AM,46.4,30.2,53,30.05,10.0,SW,6.9,-,N/A,,Scattered Clouds,230,2013-10-26 14:55:00
11:15 AM,46.4,30.2,53,30.04,10.0,South,8.1,-,N/A,,Overcast,190,2013-10-26 15:15:00
11:35 AM,46.4,28.4,50,30.03,10.0,South,8.1,16.1,N/A,,Mostly Cloudy,190,2013-10-26 15:35:00
11:55 AM,46.4,30.2,53,30.03,10.0,SSW,8.1,-,N/A,,Mostly Cloudy,200,2013-10-26 15:55:00
12:15 PM,48.2,30.2,50,30.01,10.0,SSW,5.8,-,N/A,,Mostly Cloudy,200,2013-10-26 16:15:00
12:35 PM,50.0,28.4,43,30.00,10.0,SW,8.1,17.3,N/A,,Mostly Cloudy,220,2013-10-26 16:35:00
12:55 PM,48.2,24.8,40,29.99,10.0,WSW,11.5,16.1,N/A,,Partly Cloudy,240,2013-10-26 16:55:00
1:15 PM,48.2,26.6,43,29.99,10.0,SW,10.4,-,N/A,,Mostly Cloudy,220,2013-10-26 17:15:00
1:35 PM,48.2,24.8,40,29.98,10.0,SSW,9.2,19.6,N/A,,Overcast,210,2013-10-26 17:35:00
1:55 PM,48.2,26.6,43,29.97,10.0,SW,8.1,18.4,N/A,,Overcast,220,2013-10-26 17:55:00
2:15 PM,48.2,24.8,40,29.96,10.0,SW,8.1,-,N/A,,Mostly Cloudy,220,2013-10-26 18:15:00
2:35 PM,48.2,24.8,40,29.95,10.0,SW,5.8,-,N/A,,Overcast,220,2013-10-26 18:35:00
2:55 PM,48.2,24.8,40,29.94,10.0,SSW,6.9,-,N/A,,Overcast,200,2013-10-26 18:55:00
3:15 PM,48.2,21.2,34,29.94,10.0,SSW,5.8,-,N/A,,Overcast,210,2013-10-26 19:15:00
3:35 PM,48.2,23.0,37,29.93,10.0,SSW,5.8,-,N/A,,Overcast,200,2013-10-26 19:35:00
3:55 PM,48.2,24.8,40,29.92,10.0,South,4.6,-,N/A,,Mostly Cloudy,190,2013-10-26 19:55:00
4:15 PM,48.2,23.0,37,29.91,10.0,SSW,6.9,-,N/A,,Partly Cloudy,210,2013-10-26 20:15:00
4:35 PM,48.2,23.0,37,29.89,10.0,SSW,6.9,-,N/A,,Clear,200,2013-10-26 20:35:00
4:55 PM,48.2,23.0,37,29.89,10.0,South,5.8,-,N/A,,Clear,190,2013-10-26 20:55:00
5:15 PM,48.2,23.0,37,29.88,10.0,South,4.6,-,N/A,,Clear,190,2013-10-26 21:15:00
5:35 PM,48.2,23.0,37,29.88,10.0,South,3.5,-,N/A,,Clear,190,2013-10-26 21:35:00
5:55 PM,44.6,24.8,46,29.87,10.0,South,4.6,-,N/A,,Clear,190,2013-10-26 21:55:00
6:15 PM,44.6,26.6,49,29.87,10.0,SSW,4.6,-,N/A,,Clear,210,2013-10-26 22:15:00
6:35 PM,42.8,26.6,53,29.87,10.0,SSW,4.6,-,N/A,,Clear,200,2013-10-26 22:35:00
6:55 PM,42.8,26.6,53,29.87,10.0,SSW,3.5,-,N/A,,Clear,200,2013-10-26 22:55:00
7:15 PM,44.6,26.6,49,29.87,10.0,SSW,5.8,-,N/A,,Clear,200,2013-10-26 23:15:00
7:35 PM,46.4,24.8,43,29.87,10.0,SSW,5.8,-,N/A,,Clear,200,2013-10-26 23:35:00
7:55 PM,46.4,24.8,43,29.87,10.0,SSW,5.8,-,N/A,,Clear,200,2013-10-26 23:55:00
8:15 PM,46.4,26.6,46,29.87,10.0,SSW,5.8,-,N/A,,Clear,200,2013-10-27 00:15:00
8:35 PM,46.4,24.8,43,29.88,10.0,SSW,6.9,-,N/A,,Mostly Cloudy,210,2013-10-27 00:35:00
8:55 PM,46.4,26.6,46,29.88,10.0,SSW,8.1,-,N/A,,Overcast,210,2013-10-27 00:55:00
9:15 PM,48.2,26.6,43,29.87,10.0,SSW,6.9,-,N/A,,Overcast,210,2013-10-27 01:15:00
9:35 PM,46.4,24.8,43,29.87,10.0,SSW,6.9,-,N/A,,Overcast,200,2013-10-27 01:35:00
9:55 PM,46.4,26.6,46,29.87,10.0,SSW,6.9,-,N/A,,Overcast,210,2013-10-27 01:55:00
10:15 PM,46.4,26.6,46,29.87,10.0,SSW,6.9,-,N/A,,Overcast,210,2013-10-27 02:15:00
10:35 PM,46.4,26.6,46,29.87,10.0,SSW,6.9,-,N/A,,Overcast,210,2013-10-27 02:35:00
10:55 PM,46.4,28.4,50,29.87,10.0,SW,13.8,25.3,N/A,,Overcast,230,2013-10-27 02:55:00
11:15 PM,46.4,28.4,50,29.86,10.0,SSW,11.5,20.7,N/A,,Overcast,210,2013-10-27 03:15:00
11:35 PM,46.4,28.4,50,29.86,10.0,SW,15.0,21.9,N/A,,Overcast,230,2013-10-27 03:35:00
11:55 PM,46.4,28.4,50,29.85,10.0,SSW,6.9,-,N/A,,Overcast,210,2013-10-27 03:55:00